Theta_e
347 348 346 343 343 342 342 345 349 348 346 345 340 342 342 344 342 340 342 348 354 360 361 361 363 362 360 359 359 358 356 356 357 356 356 358 358 356 358 356 356 355 355
345 344 345 343 343 342 343 345 346 348 345 344 342 342 343 347 349 349 350 351 355 361 363 361 363 362 360 359 359 359 355 359 356 356 360 359 357 358 358 356 356 355 354
345 344 345 343 345 346 345 346 347 348 344 343 344 346 347 348 351 351 351 351 356 361 361 361 363 364 362 359 359 357 359 360 358 358 359 359 360 358 359 356 355 351 352
348 346 344 341 345 348 348 348 348 347 348 348 346 347 347 347 350 350 349 352 354 356 361 363 364 364 361 359 357 358 360 360 361 360 360 360 359 360 357 356 352 351 353
349 347 342 345 347 346 342 347 347 348 346 345 343 343 343 344 347 351 348 348 350 353 356 358 363 363 359 359 357 359 360 361 362 361 361 360 359 360 358 357 352 352 352
349 348 346 347 348 345 344 346 349 347 344 346 346 344 344 342 345 346 346 349 350 349 352 354 357 358 362 360 359 359 363 362 363 363 362 361 360 360 359 357 354 351 352
349 348 347 346 345 345 345 348 348 345 344 344 339 337 339 341 342 344 347 346 348 349 348 350 351 352 355 361 361 362 363 363 364 363 363 361 360 360 357 356 355 353 351
349 347 347 345 343 345 345 349 347 343 341 340 335 331 329 331 336 340 344 345 345 350 348 348 348 349 352 352 356 361 363 363 362 363 364 362 361 360 358 356 355 354 352
349 348 346 344 342 343 346 349 348 345 340 339 337 331 327 324 328 336 338 341 343 346 348 350 351 351 351 352 352 354 359 359 362 362 363 363 361 360 359 358 356 355 353
348 349 347 343 342 344 347 348 350 347 341 338 337 335 333 330 328 330 336 339 340 340 347 349 352 353 354 353 354 354 355 356 360 362 362 365 363 361 359 359 358 357 355
350 349 348 345 342 342 347 347 347 348 348 341 339 335 333 334 336 330 331 334 339 342 344 348 350 351 352 353 354 354 355 355 356 359 362 364 364 363 361 359 359 358 356
347 349 348 346 346 344 345 344 343 344 349 346 342 339 335 332 334 336 332 334 332 340 343 344 344 348 349 353 355 356 355 355 354 354 356 360 361 363 362 361 360 358 358
344 346 346 344 342 341 344 345 341 342 349 348 344 342 341 338 343 338 337 334 333 338 341 342 347 348 349 351 352 356 356 353 351 349 350 353 356 359 361 361 362 362 361
345 347 348 348 345 342 342 346 343 341 347 350 349 348 345 344 345 344 337 334 334 332 337 342 346 348 351 352 353 353 354 350 349 346 346 348 350 352 355 357 359 360 360
346 347 348 349 349 348 346 347 346 346 348 348 350 350 348 348 347 345 342 338 339 333 334 340 343 348 349 351 353 355 357 351 348 347 344 344 345 347 349 351 352 353 354
345 347 347 348 349 350 350 350 349 348 347 347 348 349 349 347 346 345 343 343 341 338 335 338 342 348 354 354 354 356 357 351 348 345 343 342 342 344 345 346 347 347 349
345 345 346 347 347 348 350 349 349 349 347 348 348 349 350 350 349 348 345 345 345 343 340 343 343 352 353 352 356 359 355 358 358 344 343 341 340 341 342 343 343 343 343
346 346 346 347 347 347 348 348 348 350 347 347 347 347 348 348 349 349 347 346 345 345 346 342 346 346 349 350 352 352 352 354 359 349 342 340 338 337 337 336 336 336 335
347 346 346 345 346 347 346 347 348 349 349 349 349 347 348 348 348 347 346 346 346 347 348 344 344 347 350 349 351 351 352 355 356 350 342 338 337 336 334 331 331 329 327
348 348 346 346 346 347 348 347 347 348 349 349 350 349 349 348 348 348 347 347 347 347 346 344 345 346 348 350 347 346 347 349 351 351 347 341 340 333 331 329 329 327 321
354 353 348 347 348 347 347 346 348 347 347 347 349 350 350 350 346 346 348 348 348 345 344 344 344 344 344 345 346 347 345 348 350 351 350 349 345 342 337 330 330 326 322
348 349 346 347 346 348 334 334 340 347 347 347 345 347 350 346 345 340 339 341 346 346 345 343 344 341 345 346 346 345 343 343 341 347 348 348 349 343 338 334 324 322 320
342 342 337 345 333 333 329 331 334 335 342 346 347 346 346 348 345 350 340 337 338 338 342 348 345 345 347 346 346 344 343 344 343 347 348 345 343 340 333 327 322 321 318
338 342 344 336 334 335 330 331 333 334 334 338 346 348 346 348 349 349 350 347 347 346 344 345 349 350 349 349 347 349 347 346 346 347 347 341 339 333 328 328 323 321 318
334 338 343 337 336 334 328 328 329 332 333 334 340 347 347 348 339 333 348 347 348 348 337 333 336 335 334 334 340 345 341 341 339 341 340 341 335 333 329 329 327 323 319
332 334 338 340 334 335 324 324 327 330 329 331 336 341 335 343 331 328 344 347 344 346 346 341 341 334 332 337 331 347 345 341 339 336 338 336 330 332 329 330 330 328 327
Wind_Speed
3 2 2 2 2 2 2 2 1 1 1 1 1 2 4 5 5 3 3 8 9 12 14 14 11 10 10 10 10 9 9 10 9 8 9 11 10 8 8 6 6 5 6
3 3 3 3 3 3 2 2 2 0 1 2 2 4 4 4 4 5 3 4 8 9 14 12 10 11 11 11 11 10 10 10 10 10 9 10 10 9 7 6 6 5 6
4 3 3 3 3 3 3 3 2 2 2 3 4 5 4 5 5 4 4 4 3 9 11 11 10 11 9 10 11 11 12 9 11 9 9 8 9 8 8 7 4 5 5
4 4 4 3 2 2 3 2 2 2 2 3 3 3 2 3 5 4 3 4 4 4 7 11 10 10 12 11 12 12 11 11 11 8 9 9 8 7 6 4 4 5 5
5 4 3 2 3 3 3 2 2 2 2 2 2 2 1 1 2 3 5 4 4 5 4 8 11 10 12 12 13 13 13 13 11 8 9 7 7 8 6 6 6 6 5
6 4 4 4 3 3 3 2 2 2 2 2 1 2 1 2 2 2 2 3 4 5 5 7 6 7 11 14 13 13 15 14 11 9 8 7 7 7 7 8 7 7 7
6 5 4 4 4 4 3 3 2 3 2 2 2 3 3 5 5 3 3 3 4 5 6 6 6 5 6 13 14 15 16 13 9 8 7 8 7 8 7 9 8 7 8
6 5 4 4 3 2 4 4 3 2 2 4 3 2 1 2 3 5 4 5 7 4 6 9 9 8 7 7 10 15 16 15 12 10 9 9 9 9 9 9 9 9 8
6 6 6 4 4 4 4 3 3 3 2 2 1 3 1 2 2 0 5 5 6 5 6 7 9 8 8 7 9 11 15 12 13 13 11 9 11 11 11 10 10 10 10
7 8 7 7 6 4 4 3 3 3 3 3 1 2 1 1 2 3 2 3 5 7 7 6 6 8 8 7 11 13 12 11 12 13 13 12 12 12 12 12 11 11 11
6 7 8 7 6 5 4 4 3 3 2 3 3 2 1 2 4 2 2 2 2 5 6 6 6 6 8 8 6 8 12 13 12 13 12 13 13 13 14 14 13 13 13
4 6 7 6 6 4 5 4 4 4 4 3 4 3 3 3 3 3 3 1 2 3 3 5 7 6 7 7 9 11 13 13 13 12 11 13 13 14 15 16 15 15 15
4 7 7 7 6 6 6 4 5 5 5 4 5 4 3 3 1 2 1 1 1 1 3 2 4 5 6 6 8 11 12 11 11 11 11 12 13 14 14 15 15 16 16
6 5 8 7 8 7 7 5 4 5 5 5 6 5 3 4 3 2 2 1 2 2 2 3 1 2 4 5 8 11 9 11 11 10 11 12 13 14 14 14 14 14 15
7 7 8 9 9 8 8 7 6 7 5 5 5 5 4 3 4 3 2 2 2 1 2 2 2 2 2 3 6 6 7 7 11 12 11 13 12 13 13 13 14 14 14
9 7 10 10 10 10 9 8 7 6 6 5 5 6 5 4 3 3 3 3 3 2 2 2 2 3 3 3 3 5 6 8 7 10 10 10 10 11 12 13 13 14 15
11 11 10 10 11 11 10 9 10 8 9 8 7 6 7 4 5 4 4 3 4 3 3 2 2 2 2 2 1 2 4 5 5 7 6 8 9 12 13 12 12 12 12
12 13 13 12 11 11 11 12 12 11 10 10 10 8 9 6 7 5 4 6 6 5 4 5 2 2 4 2 3 4 3 5 6 7 8 8 7 8 8 7 7 9 10
13 12 12 13 13 13 11 12 12 12 11 12 12 11 11 8 8 5 6 5 4 4 4 4 4 2 2 1 2 3 3 2 3 6 7 6 3 1 2 2 2 4 7
10 12 13 14 13 13 12 11 11 11 11 11 11 12 12 12 11 9 8 9 7 5 5 5 5 4 3 1 2 3 3 1 3 2 1 4 5 8 7 6 5 5 6
9 12 13 10 10 10 9 11 11 12 12 12 11 12 13 14 16 13 7 7 7 6 5 5 5 3 3 3 4 1 4 3 3 3 2 2 3 2 2 2 4 5 6
6 4 3 4 6 3 12 14 11 8 11 12 12 12 12 14 14 16 17 13 11 8 8 5 6 7 8 4 4 4 3 2 3 2 3 2 4 3 3 2 4 5 6
4 4 7 8 15 11 10 12 12 8 10 10 11 11 10 10 11 10 13 15 14 15 14 9 9 8 6 7 5 5 6 5 5 3 4 4 3 3 3 4 6 6 5
5 3 2 8 9 9 10 5 7 9 7 10 11 11 10 11 10 12 11 11 12 11 12 9 11 10 8 6 7 3 3 4 3 3 4 4 3 3 3 3 7 6 5
5 3 4 6 8 9 18 21 15 5 11 11 10 10 11 11 12 16 12 12 11 10 8 13 14 10 10 12 8 5 5 3 4 2 4 3 2 2 2 3 5 8 7
5 4 5 6 12 10 18 17 15 10 9 8 10 11 13 15 13 17 14 12 12 11 9 6 5 6 9 9 11 10 6 6 4 3 4 5 3 3 2 2 2 4 5
Wind_Direction
200 188 189 188 226 207 235 238 227 202 168 179 184 203 219 200 213 220 228 258 279 249 220 222 232 223 228 238 236 236 249 256 257 263 270 280 285 283 278 287 294 293 296
189 142 217 201 242 227 242 212 201 289 203 156 191 243 248 261 227 235 249 266 271 237 214 217 234 228 226 234 236 242 251 252 257 266 279 284 283 277 266 267 271 281 283
196 164 224 229 219 217 201 215 202 177 203 186 209 237 254 259 265 255 240 224 237 197 205 219 228 242 246 241 249 250 253 254 261 271 277 275 276 260 253 243 249 273 273
198 193 226 217 179 226 210 209 196 160 207 216 191 226 236 304 298 276 224 213 174 191 219 227 227 234 235 241 254 255 252 250 255 264 277 275 264 261 239 235 251 268 257
212 190 202 213 189 205 221 216 171 158 174 172 195 161 94 348 315 277 236 235 208 191 212 231 239 234 241 239 245 249 250 248 245 249 265 267 258 274 233 216 236 248 249
215 193 193 214 186 205 230 227 200 192 141 155 160 235 265 293 275 256 304 286 243 230 224 229 230 239 236 233 243 247 242 248 240 233 255 234 236 250 234 215 215 240 244
208 205 215 218 203 203 216 216 203 187 141 137 87 323 307 276 275 267 260 274 285 242 228 235 235 233 239 235 236 247 258 259 241 244 255 212 230 246 233 216 212 234 245
207 201 208 245 223 198 235 202 198 153 138 164 160 177 353 317 278 252 240 242 252 257 231 223 224 224 225 233 235 241 246 248 246 243 249 209 221 229 228 227 218 228 235
200 199 199 218 235 200 225 220 199 175 190 172 169 131 116 249 328 351 235 238 241 237 235 227 222 226 224 228 236 242 243 235 232 234 242 224 220 220 227 224 223 226 229
194 198 199 200 223 217 223 230 190 182 148 204 142 221 233 152 261 316 229 234 237 238 234 223 226 225 224 225 224 228 234 237 232 229 231 238 229 226 233 233 229 229 229
205 200 200 193 217 211 208 216 217 199 185 167 161 150 207 224 232 232 305 320 259 232 233 228 224 226 229 226 223 226 224 231 233 228 224 230 234 233 240 242 241 240 240
218 210 202 199 215 225 209 207 210 222 210 216 179 178 175 174 192 211 236 242 279 294 248 222 226 224 225 220 222 215 220 226 228 231 226 225 233 233 236 243 243 248 250
219 221 198 201 208 214 231 203 200 223 213 206 200 187 202 211 201 187 142 2 319 301 306 258 228 224 225 216 228 212 221 223 226 220 225 227 228 233 236 240 244 249 250
215 209 209 207 214 203 214 207 206 230 223 238 229 215 187 208 199 192 148 148 354 317 315 304 303 269 253 229 227 218 233 219 225 226 219 223 228 227 229 236 242 247 252
226 209 204 214 222 218 206 203 218 222 218 225 236 231 235 215 198 201 187 168 176 276 301 314 307 301 293 249 242 236 238 220 219 228 224 218 226 235 233 234 236 239 245
223 216 211 213 220 223 216 207 218 217 222 227 232 231 232 244 227 197 202 189 188 188 244 235 266 287 321 298 245 239 247 239 239 216 212 230 229 240 241 238 239 239 240
213 215 228 216 214 213 216 214 219 210 215 226 224 220 232 210 236 221 206 209 213 179 216 271 254 275 279 303 305 212 249 259 248 232 218 219 225 239 241 241 242 251 255
222 218 211 219 222 217 211 215 219 218 211 220 225 218 230 223 223 216 211 222 226 211 204 237 253 267 246 266 281 290 261 262 270 281 276 267 259 255 249 254 268 267 268
238 220 220 215 214 217 211 215 214 217 210 213 217 218 225 214 228 204 206 209 211 218 214 221 241 235 264 255 301 266 276 283 255 259 258 257 250 244 95 47 4 315 291
237 234 224 225 224 215 209 211 215 215 218 217 216 217 215 211 219 214 211 213 210 207 218 227 235 241 238 262 254 268 281 264 280 273 57 45 114 103 91 80 73 63 56
260 246 236 227 238 232 216 216 209 216 220 223 221 222 221 215 211 204 198 213 195 210 208 218 235 237 238 222 216 216 241 267 273 239 264 235 172 172 114 111 120 103 97
285 230 222 240 216 268 15 22 339 264 225 222 225 225 229 212 214 205 205 203 193 208 217 207 232 235 235 216 195 211 237 245 267 172 209 235 182 194 188 181 129 126 112
272 257 216 175 115 109 45 61 24 354 316 271 248 230 222 225 213 220 223 220 212 208 214 210 229 225 234 203 194 214 213 219 236 218 214 253 177 228 179 163 169 159 138
277 309 173 152 150 137 140 317 270 271 289 292 268 246 228 223 205 207 216 221 225 220 219 215 227 232 224 184 197 200 221 221 235 228 188 247 163 193 176 198 198 181 172
276 217 232 211 221 208 189 189 196 264 267 259 270 248 232 226 218 204 215 220 226 229 213 210 215 217 204 190 188 183 218 202 252 250 192 245 176 180 199 220 210 208 212
261 271 236 187 215 212 200 187 187 201 221 258 244 261 239 239 220 208 210 215 225 223 200 190 210 217 208 216 196 201 189 206 212 256 180 203 166 171 228 213 214 205 223